ONEWEB-0068, 45446

Orbit data source: Space-Track

ONEWEB-0068, 45446 is a payload satellite owned by One Web (UK) in LEO that was launched on Sat, 21 Mar 2020 UTC via a SOYUZ-2-1B launch vehicle from the Tyuratam Missile And Space Complex (TTMTR). Payload-class satellites include a variety of spacecraft equipped with specific instruments for various scientific and technological missions. These include communications satellites like Starlink; space stations such as the ISS; scientific satellites like the Hubble; Earth observation satellites from companies like Planet Labs, Umbra, and HawkEye 360; GPS; miniature CubeSats for education and research; and military/defense satellites.

Loading next visibility...
Identifier
45446, 2020-020Y
Orbit
LEO
Country
Flag of UKUK
Related business
Manufacturer
One Web
Mission
Operational Commercial Communications
Bus & Motor
ARROW, Unknown motor
Mass
148 kg wet, ~140 kg dry
Launch date (UTC)
2020-03-21 (6 years ago)
Launch vehicle
SOYUZ-2-1B
Launch site
Tyuratam Missile And Space Complex (TTMTR)
Object type
Payload
Rocket body
Debris
Shape & HBR
Trap Box + 2 Pan, 6.7 m
Radar Cross Section
3.464 m², Large (>1 m²)

Expand to show TLE details & history
Last TLE update: 9 hours ago

TLE from 9 hours ago
0 ONEWEB-0068
1 45446U 20020Y   26035.09177865  .00000559  00000-0  15412-2 0  9990
2 45446  87.8825  47.5379 0001728  85.4859 274.6466 13.11416700285155
Epoch: 2026-02-04T02:12Z
TLE epoch observation values (Epoch: 2026-02-04T02:12:09.675Z)
Latitude
-0.00005°
Longitude
-119.76574°
Altitude
1,220.467 km
Speed
7.244 km/s
True Right ascension
03h 10m 09s
True Declination
0° 00' 00"
Sunlit
Object was in daylight at epoch
Visualization orbit readout
Latitude
Unknown
Longitude
Unknown
Altitude
Unknown
Speed
Unknown
Apparent Right ascension
Unknown
Apparent Declination
Unknown
Sunlit
N/A
Visualization observer readout
Local Sidereal Time
12:40:19
Azimuth
Unknown
Elevation
Unknown
Doppler factor
Unknown
Orbital elements
Apogee altitude
1,216.114 km
Perigee altitude
1,213.49 km
Semi-major axis
7,592.939 km
Eccentricity
0.00017
Inclination
87.8825°
RAAN
47.5379°
Arg. of periapsis
85.4859°
True anomaly
274.62686°
Mean anomaly
274.6466°
Eccentric anomaly
274.63673°
Mean motion
3.28041 °/min
Orbital period
109.74 mins
BSTAR
0.0015412
Loading maneuver chart data...
Computing Atmospheric mass density...
Loading historical data...
Loading historical data...
Loading historical data...
Loading historical data...
Loading historical data...
Loading historical data...
Loading historical data...

Documentation

Showing up to 5 results
|